EMGATE Weather Reports


Display with metric or nautical units.
time (UTC)temp
F
wind
direction
speed
MPH
gust
MPH
rain 1hr
in
rain 24hr
in
rain mn
in
humidity
%
barometer
mb
20260510224908 53 339 10.0 17.0 0.00 0.04 0.04 53 1012.7
20260510223408 55 295 8.0 17.0 0.00 0.04 0.04 53 1012.0
20260510221908 55 245 8.0 14.0 0.00 0.04 0.04 50 1011.7
20260510220408 54 266 7.0 12.0 0.00 0.04 0.04 51 1011.3
20260510214908 54 276 7.0 14.0 0.00 0.04 0.04 51 1011.3
20260510213408 54 274 8.0 15.0 0.00 0.04 0.04 52 1011.2
20260510211908 55 295 9.0 19.0 0.00 0.04 0.04 50 1011.1
20260510210408 57 269 11.0 17.0 0.00 0.04 0.04 45 1010.5
20260510204908 58 264 12.0 18.0 0.00 0.04 0.04 42 1010.2
20260510203408 59 293 10.0 21.0 0.00 0.04 0.04 41 1009.9
20260510201908 60 255 7.0 18.0 0.00 0.04 0.04 41 1009.7
20260510200449 60 238 9.0 15.0 0.00 0.04 0.04 41 1009.7
20260510200408 60 238 9.0 15.0 0.00 0.04 0.04 41 1009.7
20260510194908 60 250 6.0 14.0 0.00 0.04 0.04 41 1009.7
20260510193408 60 215 7.0 15.0 0.00 0.04 0.04 41 1009.7
20260510191908 60 221 7.0 16.0 0.00 0.04 0.04 41 1009.7
20260510190408 61 284 7.0 16.0 0.00 0.04 0.04 41 1009.6
20260510184908 61 274 7.0 17.0 0.00 0.04 0.04 42 1009.5
20260510183408 61 248 8.0 18.0 0.00 0.04 0.04 39 1009.4
20260510181908 61 216 8.0 16.0 0.00 0.04 0.04 40 1009.3
20260510180408 61 252 9.0 21.0 0.00 0.04 0.04 39 1009.2
20260510174908 62 209 7.0 13.0 0.00 0.04 0.04 43 1009.1
20260510173452 61 269 7.0 18.0 0.00 0.04 0.04 41 1009.1
20260510173408 61 269 7.0 18.0 0.00 0.04 0.04 41 1009.1
20260510171908 62 233 6.0 13.0 0.00 0.04 0.04 42 1009.0
20260510170408 61 227 7.0 16.0 0.00 0.04 0.04 44 1009.0
20260510164908 61 224 8.0 17.0 0.00 0.04 0.04 42 1008.9
20260510163447 60 256 8.0 16.0 0.00 0.04 0.04 45 1008.9
20260510163408 60 256 8.0 16.0 0.00 0.04 0.04 45 1008.9
20260510161908 60 257 8.0 17.0 0.00 0.04 0.04 46 1008.8
20260510160408 61 196 7.0 14.0 0.00 0.04 0.04 48 1009.0
20260510154908 60 203 5.0 12.0 0.00 0.04 0.04 52 1008.9
20260510153505 60 181 8.0 15.0 0.00 0.04 0.04 53 1008.7
20260510153408 60 181 8.0 15.0 0.00 0.04 0.04 53 1008.7
20260510151908 60 248 5.0 11.0 0.00 0.04 0.04 53 1008.7
20260510150408 60 289 7.0 14.0 0.00 0.04 0.04 55 1008.6
20260510144908 60 195 6.0 16.0 0.00 0.04 0.04 57 1008.5
20260510143408 59 269 7.0 15.0 0.00 0.04 0.04 57 1008.7
20260510141908 59 276 8.0 17.0 0.00 0.04 0.04 60 1008.6
20260510140408 58 234 5.0 13.0 0.00 0.04 0.04 61 1008.5
20260510134908 57 278 5.0 10.0 0.00 0.04 0.04 62 1008.4
20260510133408 57 231 9.0 17.0 0.00 0.04 0.04 62 1008.2
20260510131908 56 237 6.0 12.0 0.00 0.04 0.04 66 1008.0
20260510130453 55 212 5.0 12.0 0.00 0.04 0.04 71 1007.8
20260510130408 55 212 5.0 12.0 0.00 0.04 0.04 71 1007.8
20260510124908 54 205 4.0 7.0 0.00 0.04 0.04 73 1007.7
20260510123408 54 207 4.0 12.0 0.00 0.04 0.04 75 1007.6
20260510121908 52 219 3.0 7.0 0.00 0.04 0.04 77 1007.6
20260510120408 52 220 4.0 8.0 0.00 0.04 0.04 78 1007.3
20260510114908 51 210 4.0 9.0 0.00 0.04 0.04 80 1007.3
20260510113556 51 224 3.0 9.0 0.00 0.04 0.04 79 1007.0
20260510113408 51 224 3.0 9.0 0.00 0.04 0.04 79 1007.0
20260510111908 52 212 3.0 10.0 0.00 0.04 0.04 79 1006.8
20260510110408 51 202 3.0 7.0 0.00 0.04 0.04 80 1006.8
20260510104908 51 213 3.0 8.0 0.00 0.04 0.04 81 1006.6
20260510103408 50 227 3.0 8.0 0.00 0.04 0.04 82 1006.6
20260510101908 50 219 3.0 9.0 0.00 0.04 0.04 82 1006.3
20260510100408 50 205 3.0 6.0 0.00 0.04 0.04 82 1006.2
20260510094908 49 209 4.0 7.0 0.00 0.04 0.04 82 1005.9
20260510093408 49 211 4.0 10.0 0.00 0.04 0.04 82 1005.8
20260510091908 49 207 3.0 9.0 0.00 0.04 0.04 82 1005.6
20260510090408 48 201 4.0 8.0 0.00 0.04 0.04 82 1005.5
20260510084908 48 188 3.0 10.0 0.00 0.04 0.04 82 1005.4
20260510083408 48 152 3.0 8.0 0.00 0.04 0.04 82 1005.4
20260510081908 48 152 3.0 12.0 0.01 0.04 0.04 83 1005.2
20260510080408 48 205 3.0 7.0 0.03 0.04 0.04 83 1005.3
20260510074908 48 172 4.0 7.0 0.04 0.04 0.04 83 1005.3
20260510073408 48 172 3.0 14.0 0.04 0.04 0.04 82 1005.3
20260510071908 48 207 5.0 11.0 0.03 0.03 0.03 80 1005.2
20260510070408 49 194 4.0 9.0 0.01 0.01 0.01 74 1005.5
20260510064908 49 171 3.0 7.0 0.00 0.00 0.00 73 1005.6
20260510063408 49 176 3.0 7.0 0.00 0.00 0.00 72 1005.6
20260510061908 49 169 4.0 11.0 0.00 0.00 0.00 72 1005.7
20260510060408 49 174 3.0 8.0 0.00 0.00 0.00 72 1005.7
20260510054908 49 166 2.0 6.0 0.00 0.00 0.00 72 1006.0
20260510053408 49 184 3.0 5.0 0.00 0.00 0.00 71 1006.1
20260510051908 48 164 2.0 6.0 0.00 0.00 0.00 71 1006.3
20260510050408 48 143 3.0 7.0 0.00 0.00 0.00 71 1006.2
20260510044908 48 176 3.0 6.0 0.00 0.00 0.00 70 1006.2
20260510043408 49 176 3.0 6.0 0.00 0.00 0.00 70 1006.3
20260510041908 49 137 3.0 7.0 0.00 0.00 0.00 69 1006.6
20260510040408 49 155 3.0 9.0 0.00 0.00 0.00 68 1006.7
20260510034908 50 191 4.0 8.0 0.00 0.00 0.00 67 1006.6
20260510033408 50 146 3.0 9.0 0.00 0.00 0.00 67 1006.8
20260510031908 50 203 3.0 4.0 0.00 0.00 0.00 66 1007.1
20260510030408 50 167 4.0 8.0 0.00 0.00 0.00 67 1007.2
20260510024908 50 176 2.0 5.0 0.00 0.00 0.00 68 1007.5
20260510023408 50 164 2.0 7.0 0.00 0.00 0.00 68 1007.4
20260510021909 50 174 2.0 7.0 0.00 0.00 0.00 69 1007.5
20260510020409 50 166 1.0 4.0 0.00 0.00 0.00 68 1007.6
20260510014909 50 154 3.0 8.0 0.00 0.00 0.00 67 1007.7
20260510013408 51 150 4.0 13.0 0.00 0.00 0.00 66 1007.9
20260510011909 51 181 4.0 9.0 0.00 0.00 0.00 65 1007.9
20260510010409 51 147 3.0 8.0 0.00 0.00 0.00 64 1007.8
20260510004909 52 193 3.0 12.0 0.00 0.00 0.00 62 1007.8
20260510003409 53 195 5.0 9.0 0.00 0.00 0.00 60 1007.4
20260510001909 54 188 5.0 10.0 0.00 0.00 0.00 58 1007.2
20260510000411 55 166 4.0 10.0 0.00 0.00 0.00 54 1007.1
20260509234909 56 200 5.0 15.0 0.00 0.00 0.00 50 1007.2
20260509233409 58 194 4.0 9.0 0.00 0.00 0.00 45 1007.1
20260509231909 59 218 3.0 10.0 0.00 0.00 0.00 42 1007.0
20260509230409 60 188 4.0 11.0 0.00 0.00 0.00 37 1006.9